| time (UTC) | temp F | wind direction | speed MPH | gust MPH | rain 1hr in | rain 24hr in | rain mn in | humidity % | barometer mb |
| 20260506190054 | 57 | 290 | 4.0 | 9.0 | 0.00 | 0.10 | 0.10 | 77 | 1015.4 |
| 20260506184605 | 56 | 290 | 2.0 | 6.0 | 0.00 | 0.10 | 0.10 | 79 | 1015.6 |
| 20260506183101 | 56 | 289 | 2.0 | 9.0 | 0.00 | 0.10 | 0.10 | 79 | 1015.7 |
| 20260506181554 | 55 | 298 | 6.0 | 14.0 | 0.00 | 0.10 | 0.10 | 79 | 1015.3 |
| 20260506180055 | 55 | 294 | 9.0 | 16.0 | 0.00 | 0.10 | 0.10 | 79 | 1014.3 |
| 20260506174551 | 55 | 327 | 7.0 | 17.0 | 0.00 | 0.10 | 0.10 | 81 | 1014.3 |
| 20260506173054 | 54 | 306 | 7.0 | 12.0 | 0.00 | 0.10 | 0.10 | 83 | 1014.6 |
| 20260506171558 | 54 | 288 | 2.0 | 10.0 | 0.00 | 0.10 | 0.10 | 84 | 1015.2 |
| 20260506170112 | 53 | 319 | 6.0 | 13.0 | 0.00 | 0.10 | 0.10 | 84 | 1015.0 |
| 20260506164553 | 53 | 282 | 6.0 | 11.0 | 0.00 | 0.10 | 0.10 | 86 | 1014.8 |
| 20260506163110 | 53 | 283 | 4.0 | 12.0 | 0.00 | 0.10 | 0.10 | 87 | 1015.1 |
| 20260506161553 | 53 | 304 | 7.0 | 14.0 | 0.00 | 0.10 | 0.10 | 86 | 1014.8 |
| 20260506160056 | 53 | 280 | 5.0 | 12.0 | 0.00 | 0.10 | 0.10 | 86 | 1014.8 |
| 20260506154555 | 53 | 298 | 8.0 | 14.0 | 0.02 | 0.10 | 0.10 | 86 | 1014.4 |
| 20260506153057 | 53 | 294 | 9.0 | 14.0 | 0.10 | 0.10 | 0.10 | 89 | 1013.9 |
| 20260506151555 | 52 | 300 | 5.0 | 12.0 | 0.10 | 0.10 | 0.10 | 89 | 1014.5 |
| 20260506150053 | 52 | 286 | 2.0 | 11.0 | 0.10 | 0.10 | 0.10 | 88 | 1015.9 |
| 20260506144606 | 52 | 286 | 5.0 | 9.0 | 0.08 | 0.08 | 0.08 | 86 | 1015.3 |
| 20260506143057 | 52 | 338 | 6.0 | 12.0 | 0.00 | 0.00 | 0.00 | 82 | 1016.1 |
| 20260506141554 | 52 | 317 | 5.0 | 16.0 | 0.00 | 0.00 | 0.00 | 83 | 1014.9 |
| 20260506140054 | 52 | 311 | 7.0 | 13.0 | 0.00 | 0.00 | 0.00 | 82 | 1014.5 |
| 20260506134556 | 53 | 288 | 5.0 | 13.0 | 0.00 | 0.00 | 0.00 | 81 | 1015.1 |
| 20260506133054 | 53 | 305 | 7.0 | 14.0 | 0.00 | 0.00 | 0.00 | 80 | 1014.3 |
| 20260506131552 | 53 | 311 | 7.0 | 14.0 | 0.00 | 0.00 | 0.00 | 80 | 1014.0 |
| 20260506130059 | 53 | 293 | 8.0 | 14.0 | 0.00 | 0.00 | 0.00 | 78 | 1013.9 |
| 20260506124552 | 54 | 309 | 10.0 | 19.0 | 0.00 | 0.00 | 0.00 | 76 | 1013.4 |
| 20260506123055 | 54 | 307 | 6.0 | 13.0 | 0.00 | 0.00 | 0.00 | 76 | 1013.2 |
| 20260506121554 | 55 | 302 | 7.0 | 15.0 | 0.00 | 0.00 | 0.00 | 75 | 1013.3 |
| 20260506120053 | 55 | 352 | 8.0 | 14.0 | 0.00 | 0.00 | 0.00 | 75 | 1013.0 |
| 20260506114552 | 56 | 296 | 6.0 | 12.0 | 0.00 | 0.00 | 0.00 | 75 | 1013.1 |
| 20260506113052 | 56 | 310 | 7.0 | 13.0 | 0.00 | 0.00 | 0.00 | 74 | 1012.7 |
| 20260506111551 | 57 | 281 | 8.0 | 15.0 | 0.00 | 0.00 | 0.00 | 75 | 1012.2 |
| 20260506110053 | 57 | 311 | 7.0 | 12.0 | 0.00 | 0.00 | 0.00 | 75 | 1012.1 |
| 20260506104553 | 57 | 293 | 7.0 | 12.0 | 0.00 | 0.00 | 0.00 | 75 | 1012.0 |
| 20260506103054 | 57 | 313 | 4.0 | 11.0 | 0.00 | 0.00 | 0.00 | 75 | 1011.7 |
| 20260506101551 | 57 | 294 | 5.0 | 11.0 | 0.00 | 0.00 | 0.00 | 75 | 1011.4 |
| 20260506100052 | 57 | 289 | 7.0 | 12.0 | 0.00 | 0.00 | 0.00 | 76 | 1011.2 |
| 20260506094601 | 57 | 287 | 6.0 | 11.0 | 0.00 | 0.00 | 0.00 | 76 | 1011.0 |
| 20260506093052 | 58 | 273 | 5.0 | 11.0 | 0.00 | 0.00 | 0.00 | 76 | 1011.0 |
| 20260506091550 | 58 | 290 | 7.0 | 13.0 | 0.00 | 0.00 | 0.00 | 76 | 1010.9 |
| 20260506090056 | 58 | 298 | 6.0 | 11.0 | 0.00 | 0.00 | 0.00 | 76 | 1011.0 |
| 20260506084612 | 58 | 289 | 5.0 | 14.0 | 0.00 | 0.00 | 0.00 | 76 | 1010.8 |
| 20260506083056 | 59 | 305 | 3.0 | 13.0 | 0.00 | 0.00 | 0.00 | 77 | 1010.6 |
| 20260506081551 | 59 | 292 | 6.0 | 11.0 | 0.00 | 0.00 | 0.00 | 77 | 1010.5 |
| 20260506073059 | 60 | 286 | 4.0 | 9.0 | 0.00 | 0.00 | 0.00 | 77 | 1010.1 |
| 20260506071553 | 60 | 284 | 2.0 | 9.0 | 0.00 | 0.00 | 0.00 | 78 | 1010.2 |
| 20260506061601 | 61 | 292 | 4.0 | 10.0 | 0.00 | 0.00 | 0.00 | 77 | 1010.1 |
| 20260506050109 | 63 | 315 | 9.0 | 15.0 | 0.00 | 0.00 | 0.00 | 75 | 1010.3 |
| 20260506044555 | 64 | 299 | 5.0 | 10.0 | 0.00 | 0.00 | 0.00 | 75 | 1010.0 |
| 20260506043105 | 65 | 319 | 7.0 | 12.0 | 0.00 | 0.00 | 0.00 | 74 | 1009.8 |
| 20260506041600 | 66 | 317 | 7.0 | 14.0 | 0.00 | 0.00 | 0.00 | 72 | 1010.0 |
| 20260506040105 | 66 | 281 | 3.0 | 14.0 | 0.00 | 0.00 | 0.00 | 72 | 1009.9 |
| 20260506034605 | 67 | 302 | 7.0 | 14.0 | 0.00 | 0.00 | 0.00 | 71 | 1009.6 |
| 20260506033103 | 67 | 282 | 7.0 | 13.0 | 0.00 | 0.00 | 0.00 | 70 | 1009.3 |
| 20260506031559 | 68 | 337 | 6.0 | 11.0 | 0.00 | 0.00 | 0.00 | 70 | 1008.8 |
| 20260506030056 | 68 | 323 | 7.0 | 12.0 | 0.00 | 0.00 | 0.00 | 69 | 1008.3 |
| 20260506024557 | 69 | 325 | 6.0 | 15.0 | 0.00 | 0.00 | 0.00 | 69 | 1008.3 |
| 20260506023051 | 70 | 281 | 5.0 | 14.0 | 0.00 | 0.00 | 0.00 | 69 | 1007.9 |
| 20260506021602 | 70 | 317 | 8.0 | 17.0 | 0.00 | 0.00 | 0.00 | 68 | 1007.9 |
| 20260506020050 | 71 | 290 | 7.0 | 12.0 | 0.00 | 0.00 | 0.00 | 67 | 1007.4 |
| 20260506014553 | 72 | 286 | 7.0 | 15.0 | 0.00 | 0.00 | 0.00 | 66 | 1006.9 |
| 20260506013103 | 72 | 292 | 5.0 | 9.0 | 0.00 | 0.00 | 0.00 | 66 | 1006.6 |
| 20260506011603 | 73 | 324 | 5.0 | 10.0 | 0.00 | 0.00 | 0.00 | 65 | 1006.1 |
| 20260506010053 | 74 | 300 | 4.0 | 10.0 | 0.00 | 0.00 | 0.00 | 65 | 1005.9 |
| 20260506004555 | 74 | 285 | 7.0 | 16.0 | 0.00 | 0.00 | 0.00 | 63 | 1005.8 |
| 20260506003055 | 75 | 306 | 5.0 | 12.0 | 0.00 | 0.00 | 0.00 | 60 | 1005.4 |
| 20260506001555 | 76 | 290 | 3.0 | 12.0 | 0.00 | 0.00 | 0.00 | 61 | 1005.6 |
| 20260506000054 | 77 | 294 | 4.0 | 10.0 | 0.00 | 0.00 | 0.00 | 60 | 1005.6 |
| 20260505234605 | 78 | 286 | 6.0 | 14.0 | 0.00 | 0.00 | 0.00 | 60 | 1005.3 |
| 20260505233051 | 79 | 286 | 6.0 | 13.0 | 0.00 | 0.00 | 0.00 | 60 | 1004.9 |
| 20260505231606 | 81 | 315 | 8.0 | 14.0 | 0.00 | 0.00 | 0.00 | 59 | 1004.7 |
| 20260505230054 | 83 | 321 | 4.0 | 13.0 | 0.00 | 0.00 | 0.00 | 51 | 1004.5 |
| 20260505224556 | 84 | 290 | 6.0 | 14.0 | 0.00 | 0.00 | 0.00 | 49 | 1004.4 |
| 20260505223104 | 87 | 313 | 5.0 | 9.0 | 0.00 | 0.00 | 0.00 | 49 | 1004.2 |
| 20260505221600 | 87 | 282 | 2.0 | 4.0 | 0.00 | 0.00 | 0.00 | 51 | 1004.0 |
| 20260505220056 | 87 | 296 | 1.0 | 4.0 | 0.00 | 0.00 | 0.00 | 52 | 1003.8 |
| 20260505214616 | 88 | 295 | 1.0 | 3.0 | 0.00 | 0.00 | 0.00 | 49 | 1004.0 |
| 20260505213102 | 89 | 286 | 0.0 | 2.0 | 0.00 | 0.00 | 0.00 | 48 | 1004.0 |
| 20260505211603 | 90 | 318 | 0.0 | 3.0 | 0.00 | 0.00 | 0.00 | 47 | 1004.0 |
| 20260505210052 | 90 | 173 | 3.0 | 7.0 | 0.00 | 0.00 | 0.00 | 45 | 1004.3 |
| 20260505204551 | 90 | 149 | 2.0 | 7.0 | 0.00 | 0.00 | 0.00 | 47 | 1004.6 |
| 20260505203054 | 90 | 141 | 2.0 | 8.0 | 0.00 | 0.00 | 0.00 | 46 | 1004.6 |
| 20260505201557 | 91 | 283 | 1.0 | 7.0 | 0.00 | 0.00 | 0.00 | 47 | 1004.9 |
| 20260505200059 | 89 | 154 | 2.0 | 7.0 | 0.00 | 0.00 | 0.00 | 50 | 1005.0 |
| 20260505194557 | 90 | 175 | 3.0 | 11.0 | 0.00 | 0.00 | 0.00 | 50 | 1005.0 |
| 20260505193054 | 89 | 175 | 4.0 | 12.0 | 0.00 | 0.00 | 0.00 | 52 | 1005.1 |
| 20260505191552 | 89 | 134 | 5.0 | 10.0 | 0.00 | 0.00 | 0.00 | 55 | 1005.0 |